CAPE
0 0 0 0 140 0 0 104 112 44 159 2 0 6 415 561 106 245 19 272 351 59 54 176 797 1097 1191 1157 1140 1082 921 515 197 12 0 0 0 0 0 0 0 0 0 0 0 0 0 0 0
0 0 0 3 36 29 0 65 67 46 101 31 87 141 283 596 516 22 54 881 485 7 36 923 1473 1229 1012 1066 988 416 48 0 0 0 0 0 0 0 0 0 0 0 0 0 0 0 0 0 0
0 0 0 26 92 0 0 42 35 168 88 34 363 703 1117 654 353 180 144 751 132 72 702 923 1292 1294 1281 746 97 0 0 0 0 0 0 0 0 0 0 0 0 0 0 0 0 0 0 0 0
0 0 0 0 0 0 69 64 7 383 107 170 732 932 681 650 307 226 408 85 52 714 423 898 1302 1444 632 45 0 0 0 0 0 0 0 0 0 0 0 0 0 0 0 0 0 0 0 0 0
5 0 0 0 0 0 21 150 8 0 209 247 660 920 583 499 339 334 439 58 499 516 332 937 1492 743 54 0 0 0 0 0 0 0 0 0 0 0 0 0 0 0 0 0 0 0 0 0 0
16 0 0 0 0 0 0 124 1 73 222 568 909 835 758 521 365 282 361 4 208 273 216 907 505 169 8 0 0 0 0 0 0 0 0 0 0 0 0 0 0 0 0 0 0 0 0 0 0
27 0 0 0 0 0 0 73 28 297 388 832 840 895 790 504 484 289 102 0 169 108 410 292 0 0 0 0 0 0 0 0 0 0 0 0 0 0 0 0 0 0 0 0 0 0 0 0 0
27 19 0 0 0 0 0 125 191 385 647 952 1005 792 732 550 538 173 0 0 55 117 579 46 0 0 0 0 0 0 0 0 0 0 0 0 0 0 0 0 0 0 0 0 0 0 0 0 0
71 51 0 0 0 0 0 188 120 725 838 824 982 783 690 602 334 17 0 61 134 732 532 0 0 0 0 0 0 0 0 0 0 0 0 0 0 0 0 0 0 0 0 0 0 0 0 0 0
52 16 2 0 0 0 8 14 240 887 917 901 810 750 816 726 134 0 5 369 761 750 314 0 0 0 0 0 0 0 0 0 0 0 0 0 0 0 0 0 0 0 0 0 0 0 0 0 0
3 1 0 2 51 0 0 2 0 690 579 45 787 856 765 386 0 0 244 431 566 551 82 0 0 0 0 0 0 0 0 0 0 0 0 0 0 0 0 0 0 0 0 0 0 0 0 0 0
1 0 7 19 9 0 0 0 0 22 350 625 1019 831 661 129 0 58 280 384 758 233 0 0 0 0 0 0 0 0 0 0 0 0 0 0 0 0 0 0 0 0 0 0 0 0 0 0 0
94 19 0 0 0 0 0 0 0 0 301 479 976 674 417 17 0 36 125 255 580 123 0 0 0 0 0 0 0 0 0 0 0 0 0 0 0 0 0 0 0 0 0 0 0 0 0 0 0
59 41 1 0 0 0 0 0 0 0 544 780 877 465 263 25 74 73 211 439 635 17 0 0 0 0 0 0 0 0 0 0 0 0 0 0 0 0 0 0 0 0 0 0 0 0 0 0 0
7 14 0 0 0 0 0 0 0 0 521 616 546 40 306 84 163 157 384 661 613 0 0 0 0 0 0 0 0 0 0 0 0 0 0 0 0 0 0 0 0 0 0 0 0 0 0 0 0
0 0 0 1 0 0 0 0 0 0 508 547 589 621 695 201 244 275 355 619 271 0 0 0 0 0 0 0 0 0 0 0 0 0 0 0 0 0 0 0 0 0 0 0 0 0 0 0 0
3 2 5 15 0 0 0 0 0 0 484 435 788 483 202 11 384 466 734 851 128 0 0 0 0 0 0 0 0 0 0 0 0 0 0 0 0 0 0 0 0 0 0 0 0 0 0 0 0
0 2 5 0 0 0 0 0 0 216 275 264 390 570 36 16 457 638 937 432 0 0 0 0 0 0 0 0 0 0 0 0 0 0 0 0 0 0 0 0 0 0 0 0 0 0 0 0 0
1 0 1 0 0 0 0 0 0 21 251 132 384 457 435 289 676 946 951 24 0 0 0 0 0 0 0 0 0 0 0 0 0 0 0 0 0 0 0 0 0 0 0 0 0 0 0 0 0
0 0 0 0 1 0 0 0 0 0 171 100 135 301 492 416 737 784 108 0 0 0 0 0 0 0 0 0 0 0 0 0 0 0 0 0 0 0 0 0 0 0 0 0 0 0 0 0 0
0 0 0 2 0 0 0 0 0 0 32 100 83 176 280 613 539 381 105 0 0 0 0 0 0 0 0 0 0 0 0 0 0 0 0 0 0 0 0 0 0 0 0 0 0 0 0 0 0
1 2 4 0 7 0 1 0 0 0 0 17 58 117 266 275 415 450 174 0 0 0 0 0 0 0 0 0 0 0 0 0 0 0 0 0 0 0 0 0 0 0 0 0 0 0 0 0 0
0 0 0 0 0 4 0 0 0 0 0 0 2 74 126 167 258 549 360 1 0 0 0 0 0 0 0 0 0 0 0 0 0 0 0 0 0 0 0 0 0 0 0 0 0 0 0 0 0
0 0 0 0 4 2 0 0 0 0 0 0 0 5 89 120 140 510 629 162 0 0 0 0 0 0 0 0 0 0 0 0 0 0 0 0 0 0 0 0 0 0 0 0 0 0 0 0 0
0 0 11 0 10 0 0 0 0 0 0 0 0 8 130 155 195 294 655 264 81 0 0 0 0 0 0 0 0 0 0 0 0 0 0 0 0 0 0 0 0 0 0 0 0 0 0 0 0
0 0 4 6 7 0 0 0 0 0 0 0 0 0 87 217 200 404 414 459 174 34 0 0 0 0 0 0 0 0 0 0 0 0 0 0 0 0 0 0 0 0 0 0 0 0 0 0 0
0 0 0 1 0 0 0 0 0 0 0 0 0 0 17 488 376 436 505 612 383 68 0 0 0 0 0 0 0 0 0 0 0 0 0 0 0 0 0 0 0 0 0 0 0 0 0 0 0
0 0 0 0 0 0 0 0 0 0 0 0 0 0 0 145 387 573 476 494 428 59 0 0 0 0 0 0 0 0 0 0 0 0 0 0 0 0 0 0 0 0 0 0 0 0 0 0 0
0 0 0 0 0 4 0 0 0 0 0 0 0 0 0 0 0 72 318 268 368 117 0 0 0 0 0 0 0 0 0 0 0 0 0 0 0 0 0 0 0 0 0 0 0 0 0 0 0
0 0 0 0 0 0 0 0 0 0 0 0 0 0 0 0 0 0 0 51 263 76 0 0 0 0 0 0 0 0 0 0 0 0 0 0 0 0 0 0 0 0 0 0 0 0 0 0 0
CIN
0 0 0 0 -48 0 0 -108 -76 -19 -21 -18 0 -16 -65 -141 -20 -117 -330 -166 -168 -343 -332 -160 0 0 0 0 0 0 0 -3 -63 -184 0 0 0 0 0 0 0 0 0 0 0 0 0 0 0
0 0 0 -16 -31 -15 0 -120 -51 -21 -10 -86 -127 -53 -42 -149 -153 -337 -316 -64 -99 -491 -363 -1 0 0 0 0 0 -12 -197 0 0 0 0 0 0 0 0 0 0 0 0 0 0 0 0 0 0
0 0 0 -19 -2 0 0 -51 -70 -30 -50 -91 -65 -36 -39 -179 -169 -210 -232 -70 -266 -311 -30 0 0 0 0 0 -142 0 0 0 0 0 0 0 0 0 0 0 0 0 0 0 0 0 0 0 0
0 0 0 0 0 0 -17 -63 -40 -1 -49 -70 -54 -146 -198 -174 -205 -214 -99 -264 -347 -53 -87 -1 0 0 0 -215 0 0 0 0 0 0 0 0 0 0 0 0 0 0 0 0 0 0 0 0 0
-8 0 0 0 0 0 -15 -54 -23 0 -39 -53 -48 -120 -213 -228 -205 -156 -109 -275 -84 -79 -100 0 0 0 -204 0 0 0 0 0 0 0 0 0 0 0 0 0 0 0 0 0 0 0 0 0 0
-2 0 0 0 0 0 0 -71 -71 -210 -60 -35 -41 -200 -175 -215 -222 -181 -126 -380 -194 -152 -138 -1 -30 -115 -159 0 0 0 0 0 0 0 0 0 0 0 0 0 0 0 0 0 0 0 0 0 0
-20 0 0 0 0 0 0 -44 -29 -100 -51 -23 -135 -156 -194 -221 -202 -191 -272 0 -201 -247 -77 -81 0 0 0 0 0 0 0 0 0 0 0 0 0 0 0 0 0 0 0 0 0 0 0 0 0
-15 -3 0 0 0 0 0 -42 -17 -52 -5 -26 -111 -217 -215 -261 -197 -281 0 0 -331 -243 -41 -281 0 0 0 0 0 0 0 0 0 0 0 0 0 0 0 0 0 0 0 0 0 0 0 0 0
-4 -7 0 0 0 0 0 -43 -74 -58 -25 -36 -46 -168 -316 -273 -255 -253 0 -350 -276 -52 -53 -1 0 0 0 0 0 0 0 0 0 0 0 0 0 0 0 0 0 0 0 0 0 0 0 0 0
-7 -21 -4 0 0 0 -70 -106 -39 -33 -55 -42 -112 -261 -299 -259 -403 0 -338 -219 -84 -44 -132 -1 0 0 0 0 0 0 0 0 0 0 0 0 0 0 0 0 0 0 0 0 0 0 0 0 0
-3 -7 0 -11 -76 -6 0 -121 0 -13 -30 -26 -44 -187 -238 -314 -67 0 -322 -217 -125 -98 -303 0 0 0 0 0 0 0 0 0 0 0 0 0 0 0 0 0 0 0 0 0 0 0 0 0 0
-1 0 -61 -16 -43 0 0 0 0 -12 -64 -28 -27 -158 -177 -365 0 -470 -325 -234 -97 -208 0 0 0 0 0 0 0 0 0 0 0 0 0 0 0 0 0 0 0 0 0 0 0 0 0 0 0
-10 -6 0 0 0 0 0 0 0 0 -85 -145 -69 -64 -132 -371 0 -416 -343 -232 -114 -293 0 0 0 0 0 0 0 0 0 0 0 0 0 0 0 0 0 0 0 0 0 0 0 0 0 0 0
-27 -14 -3 0 0 0 0 0 0 0 -56 -58 -47 -18 -109 -236 -301 -360 -296 -175 -102 -55 0 0 0 0 0 0 0 0 0 0 0 0 0 0 0 0 0 0 0 0 0 0 0 0 0 0 0
-37 -22 0 0 0 0 0 0 0 0 -26 -28 -52 -64 -6 -143 -206 -223 -201 -105 -97 0 0 0 0 0 0 0 0 0 0 0 0 0 0 0 0 0 0 0 0 0 0 0 0 0 0 0 0
-2 0 0 0 0 0 0 0 0 0 -15 -19 -24 -16 -24 -48 -122 -83 -85 -61 -167 0 0 0 0 0 0 0 0 0 0 0 0 0 0 0 0 0 0 0 0 0 0 0 0 0 0 0 0
-5 -7 -3 -13 -1 0 0 0 0 0 -21 -24 -15 -108 -142 -59 -3 -20 -11 -10 -211 0 0 0 0 0 0 0 0 0 0 0 0 0 0 0 0 0 0 0 0 0 0 0 0 0 0 0 0
0 -3 -16 -1 -14 0 0 0 0 -13 -25 -32 -31 -27 -190 -115 -7 -3 -7 -61 0 0 0 0 0 0 0 0 0 0 0 0 0 0 0 0 0 0 0 0 0 0 0 0 0 0 0 0 0
-2 0 -1 0 0 0 0 0 0 -2 -35 -40 -23 -26 -11 0 -2 -5 -15 -202 0 0 0 0 0 0 0 0 0 0 0 0 0 0 0 0 0 0 0 0 0 0 0 0 0 0 0 0 0
0 -1 0 0 -8 0 0 0 0 0 -31 -68 -47 -14 -6 -1 -1 -39 -124 0 0 0 0 0 0 0 0 0 0 0 0 0 0 0 0 0 0 0 0 0 0 0 0 0 0 0 0 0 0
0 0 0 -3 0 0 0 0 0 0 -10 -54 -70 -62 -18 -9 -45 -66 -190 0 0 0 0 0 0 0 0 0 0 0 0 0 0 0 0 0 0 0 0 0 0 0 0 0 0 0 0 0 0
-2 -16 -4 -3 -15 0 -4 0 0 0 0 -26 -60 -53 -31 -53 -65 -82 -135 0 0 0 0 0 0 0 0 0 0 0 0 0 0 0 0 0 0 0 0 0 0 0 0 0 0 0 0 0 0
0 0 0 0 0 -3 0 -3 0 0 0 0 -5 -107 -90 -109 -86 -88 -129 -50 0 0 0 0 0 0 0 0 0 0 0 0 0 0 0 0 0 0 0 0 0 0 0 0 0 0 0 0 0
0 0 0 -1 -4 -1 0 -4 0 0 0 0 0 -34 -123 -124 -109 -70 -116 -186 0 0 0 0 0 0 0 0 0 0 0 0 0 0 0 0 0 0 0 0 0 0 0 0 0 0 0 0 0
0 0 -3 0 0 0 0 0 0 0 0 0 0 -25 -82 -140 -145 -118 -58 -117 -224 0 0 0 0 0 0 0 0 0 0 0 0 0 0 0 0 0 0 0 0 0 0 0 0 0 0 0 0
0 0 -5 -2 -3 0 0 0 0 0 0 0 0 0 -73 -117 -137 -103 -78 -94 -202 -275 0 0 0 0 0 0 0 0 0 0 0 0 0 0 0 0 0 0 0 0 0 0 0 0 0 0 0
0 0 0 0 0 0 0 0 0 0 0 0 0 0 -40 -60 -99 -102 -74 -59 -104 -254 0 0 0 0 0 0 0 0 0 0 0 0 0 0 0 0 0 0 0 0 0 0 0 0 0 0 0
0 0 0 0 0 0 0 0 0 0 0 0 0 0 0 -70 -62 -67 -92 -89 -103 -293 0 0 0 0 0 0 0 0 0 0 0 0 0 0 0 0 0 0 0 0 0 0 0 0 0 0 0
0 0 0 -3 -4 -2 0 0 0 0 0 0 0 0 0 0 0 -199 -87 -120 -133 -270 0 0 0 0 0 0 0 0 0 0 0 0 0 0 0 0 0 0 0 0 0 0 0 0 0 0 0
0 0 0 0 0 0 0 0 0 0 0 0 0 0 0 0 0 0 0 -216 -150 -282 0 0 0 0 0 0 0 0 0 0 0 0 0 0 0 0 0 0 0 0 0 0 0 0 0 0 0
Wind_Speed
11 11 7 1 2 5 11 12 17 7 7 3 6 4 11 11 2 6 10 17 20 16 13 12 14 14 15 14 14 14 15 14 13 12 13 13 12 12 12 12 12 12 12 11 11 11 12 11 10
9 11 2 3 5 10 11 13 17 10 6 11 10 3 7 6 4 12 11 20 17 16 13 11 15 17 16 14 15 14 13 13 13 12 13 12 12 11 11 11 11 11 11 11 10 11 12 12 12
11 11 2 5 8 16 12 11 15 3 7 9 5 5 6 6 8 7 16 20 18 14 15 13 15 16 15 16 14 14 13 12 12 12 12 12 12 11 11 11 11 11 11 11 11 11 11 12 12
6 3 4 8 15 16 17 14 11 9 4 11 10 9 6 7 9 9 15 19 15 16 14 13 15 17 17 16 14 13 13 12 12 12 12 12 12 11 11 11 11 11 11 11 11 11 11 12 12
4 4 6 11 16 19 16 11 8 7 9 10 11 7 9 7 6 13 17 14 17 16 13 11 16 17 16 15 14 14 13 13 12 12 12 12 11 11 11 11 11 11 11 11 11 12 12 12 12
5 4 6 15 17 17 18 6 12 5 15 7 9 11 6 10 6 11 12 14 16 17 14 12 15 15 15 15 14 13 13 13 12 12 11 12 11 11 12 12 11 11 11 11 11 11 11 11 11
7 7 11 11 16 15 18 9 12 24 26 9 18 7 7 9 11 11 11 11 15 16 14 11 11 12 14 14 14 14 13 13 12 11 10 10 10 11 10 11 11 11 11 11 11 11 10 8 8
7 7 16 14 10 21 17 9 6 7 9 12 16 8 9 16 13 11 10 10 15 13 14 12 10 9 8 7 13 13 13 12 11 8 7 7 9 11 12 10 10 9 9 9 9 8 8 7 6
6 4 11 15 16 14 10 5 5 4 7 6 6 8 18 21 16 11 10 9 10 12 12 12 10 9 9 7 8 10 11 9 9 6 6 4 1 5 8 5 4 4 2 4 3 6 9 12 9
5 5 14 12 12 11 12 9 6 3 2 5 13 15 24 24 21 17 14 12 11 12 12 11 9 9 8 8 7 6 6 4 3 3 3 4 5 3 3 4 3 3 4 5 7 7 8 7 4
8 11 16 13 9 11 10 4 11 9 10 7 5 17 22 21 20 18 13 12 12 13 9 9 8 8 7 6 4 3 3 3 3 5 4 2 4 3 2 2 1 1 4 3 5 6 4 6 4
10 11 18 13 7 7 10 11 14 15 3 23 16 20 21 21 19 18 16 13 14 14 10 9 9 7 7 5 4 5 4 3 3 2 3 3 2 3 4 3 3 4 3 5 4 3 5 6 6
6 9 9 11 8 6 7 9 11 14 7 6 9 18 19 19 18 16 15 12 11 12 9 8 9 7 7 6 4 4 4 4 4 3 4 4 4 4 3 3 4 3 4 3 4 4 4 5 6
3 10 11 7 10 11 7 9 10 9 5 4 23 13 14 12 14 17 18 16 13 12 8 6 8 8 7 5 5 4 5 4 4 4 3 4 4 3 3 4 4 4 3 4 3 4 4 3 4
7 6 9 8 10 10 6 9 8 12 6 8 18 12 16 13 15 12 16 16 13 12 10 7 7 9 8 7 5 5 4 4 3 3 4 4 4 3 3 3 4 3 3 5 5 5 5 5 4
6 8 7 9 12 12 5 12 10 11 5 7 9 14 14 9 13 12 9 13 13 12 10 7 6 8 8 7 5 4 4 4 3 3 3 4 4 2 3 3 3 3 3 3 3 3 4 4 4
4 5 7 10 14 8 10 6 12 12 5 7 8 9 6 1 7 8 13 11 14 14 12 8 7 8 9 8 5 5 5 4 4 3 4 3 3 2 3 2 2 3 2 2 3 3 2 3 4
4 6 7 4 1 9 12 11 16 4 5 7 7 12 11 15 15 12 13 10 9 9 10 8 6 7 7 6 5 4 3 3 4 3 3 4 3 3 1 1 2 2 2 3 3 3 2 2 2
8 9 7 7 6 4 9 13 14 8 5 6 5 3 9 15 17 17 9 11 11 9 10 11 10 7 6 5 5 4 4 3 2 2 5 4 3 3 1 1 1 1 2 1 2 2 3 3 4
9 9 9 8 6 4 8 12 17 13 7 9 8 6 9 13 15 14 12 10 10 12 12 10 10 8 6 5 4 3 5 3 4 4 3 4 4 3 1 1 1 2 2 3 3 4 3 2 3
10 8 9 10 5 6 7 12 11 15 8 9 8 11 11 13 18 14 13 14 11 13 14 13 13 12 8 6 5 2 4 4 3 3 3 3 3 3 1 1 1 1 2 1 2 2 2 1 2
10 8 6 7 6 3 2 6 10 13 18 10 10 8 11 14 13 15 15 13 15 13 12 12 12 12 9 7 7 6 4 4 4 5 4 4 4 4 4 2 1 1 1 0 1 3 1 2 2
7 5 6 8 6 5 8 4 8 7 17 12 11 13 12 14 14 16 19 17 12 11 12 11 12 12 10 9 7 6 5 4 4 4 7 5 5 4 5 2 2 1 1 1 2 1 1 1 1
6 5 8 6 2 3 10 7 7 9 18 18 15 16 17 14 15 14 13 16 14 13 12 12 13 12 12 11 9 9 8 6 5 5 5 4 4 4 4 3 3 2 1 1 2 2 1 1 2
4 5 1 3 4 6 1 1 12 11 7 7 17 17 17 17 15 13 17 17 17 17 15 12 14 14 12 11 10 8 8 8 9 7 5 6 4 3 5 4 3 2 2 1 1 0 0 0 1
8 5 3 6 3 4 2 7 8 12 10 10 5 4 16 18 17 18 15 18 19 18 19 17 16 15 14 12 10 8 8 5 5 6 5 5 4 5 6 4 3 2 3 2 2 1 2 1 2
4 6 1 2 7 1 6 7 8 10 8 3 5 5 5 17 19 20 18 16 16 17 18 18 16 13 15 14 10 9 7 7 6 7 6 5 4 4 5 4 3 4 3 2 1 1 1 2 2
4 3 2 2 3 5 6 7 8 1 7 8 7 9 7 6 10 13 12 15 15 14 14 13 13 14 14 11 10 9 8 7 6 7 7 7 6 5 5 5 4 4 3 3 3 2 2 2 1
5 4 5 2 5 3 3 7 2 2 4 8 4 7 7 9 7 6 12 12 15 14 14 14 12 12 12 12 9 10 9 8 7 6 7 7 6 7 6 6 5 5 4 3 3 3 4 1 3
11 8 10 4 5 5 3 10 9 3 3 2 4 5 5 4 5 2 3 5 9 11 14 14 11 10 12 12 11 10 9 9 8 7 7 7 7 6 7 6 5 6 5 4 4 4 4 4 4
Wind_Direction
277 257 242 228 261 231 228 228 254 272 284 45 91 48 93 35 85 126 133 112 121 123 130 134 143 138 120 117 109 105 99 92 88 88 85 79 74 68 64 58 53 47 44 41 35 36 35 32 27
284 267 241 254 233 223 221 241 246 252 120 123 67 54 87 92 53 132 112 120 128 126 136 127 117 130 120 113 105 102 98 94 92 87 83 76 70 64 62 60 53 47 40 37 38 32 31 26 20
263 258 224 202 227 233 223 205 251 316 113 110 98 18 94 92 125 124 126 126 127 139 120 121 119 122 120 110 107 103 98 95 91 88 82 74 68 62 58 54 49 43 35 31 29 28 28 21 12
234 239 273 230 230 226 242 235 221 135 185 136 126 86 69 128 141 128 140 129 126 115 115 125 126 120 116 113 109 103 98 95 92 90 82 77 70 63 56 50 45 40 33 29 25 21 19 16 10
270 252 231 235 237 253 229 235 253 336 182 171 152 109 100 59 112 137 130 132 126 119 122 128 122 120 117 114 109 103 99 94 90 86 81 75 66 60 55 51 44 43 35 28 22 19 17 15 13
226 257 220 230 224 242 252 195 183 114 291 180 101 113 109 124 190 147 133 128 119 122 129 124 114 116 116 113 108 104 99 95 90 86 82 75 69 62 56 52 44 38 34 31 29 26 21 16 14
255 253 249 232 237 223 251 168 207 164 248 174 129 101 115 141 199 137 129 128 118 127 124 121 119 110 106 108 109 107 101 97 91 89 89 89 83 72 64 52 44 42 37 30 25 17 10 5 6
254 272 265 253 247 233 232 168 224 324 193 133 137 153 164 171 185 135 130 133 123 126 126 131 128 123 109 99 104 109 110 106 104 109 117 132 124 101 68 54 43 39 37 29 20 4 350 345 325
245 273 253 246 249 265 248 203 244 258 267 163 127 151 141 165 147 143 141 129 127 123 134 135 144 129 118 116 113 113 117 126 131 143 169 169 126 66 96 100 75 36 27 2 344 337 332 321 296
257 228 261 252 254 339 349 23 158 227 45 56 73 98 138 162 152 153 156 135 128 135 148 141 135 134 143 130 153 153 148 173 185 144 123 105 115 132 109 144 158 267 279 265 292 291 314 357 3
214 246 263 290 28 6 335 141 306 267 149 35 267 145 159 155 156 155 145 141 145 144 149 138 136 136 133 125 137 150 126 108 77 49 52 92 96 166 159 133 113 49 352 14 9 3 14 358 9
246 241 251 290 13 359 335 326 308 295 115 157 215 164 169 160 162 157 145 153 155 154 140 138 137 139 143 143 160 154 135 135 109 98 68 68 51 46 54 49 42 41 3 17 9 4 1 9 9
335 292 284 269 296 297 311 305 289 276 128 156 135 179 169 177 159 144 147 159 159 150 142 146 142 142 130 152 135 121 127 113 123 85 46 50 56 59 44 57 40 41 18 16 5 8 359 23 15
307 302 307 264 274 285 297 296 331 302 158 151 139 204 170 192 152 148 159 171 168 139 132 142 141 128 131 118 117 118 105 106 106 111 110 68 76 63 35 50 45 27 21 2 11 8 4 24 28
270 284 281 253 266 259 320 297 244 277 284 195 156 153 226 183 140 167 170 167 164 134 142 168 143 134 135 132 125 116 133 124 128 127 114 95 84 78 68 59 55 17 13 16 11 18 12 20 6
236 240 262 242 209 238 141 265 286 241 223 243 180 169 178 146 143 172 193 165 148 133 152 166 148 142 138 136 132 131 134 129 128 126 121 115 116 72 80 63 67 13 23 44 8 32 13 18 17
285 274 255 280 185 211 186 264 240 270 204 240 189 191 172 142 144 188 193 182 151 150 151 150 145 147 141 138 136 134 151 139 153 142 139 140 113 90 67 80 74 18 357 50 28 12 40 38 357
305 287 295 276 269 200 230 232 267 191 263 265 225 180 181 168 185 206 207 146 126 125 132 136 139 146 135 131 131 131 141 145 145 163 143 144 142 111 39 24 92 64 16 43 22 23 339 90 347
291 294 265 278 285 272 242 255 238 218 192 252 240 202 186 189 187 183 185 134 128 134 145 154 154 167 147 142 151 151 165 162 149 139 131 155 133 142 227 258 304 117 84 114 52 23 360 13 348
277 284 287 266 274 205 273 267 249 249 193 198 199 208 191 174 188 177 150 147 164 159 163 160 165 166 161 158 161 171 158 169 161 150 161 161 165 139 264 73 30 69 36 46 60 60 355 3 53
259 251 273 296 293 298 267 277 255 239 212 177 207 181 209 190 186 193 169 159 173 176 171 169 172 171 175 166 123 94 88 83 108 153 170 173 163 143 150 57 78 72 88 63 106 90 66 8 344
262 346 285 287 308 258 232 281 238 231 235 188 183 203 205 192 210 188 171 170 179 183 174 169 169 174 179 161 148 155 162 161 186 168 171 169 171 167 150 147 143 79 115 14 183 115 97 94 5
231 14 308 291 248 309 286 297 265 269 226 225 188 196 206 200 207 187 171 176 181 187 172 170 171 176 172 175 169 168 191 193 145 134 144 156 168 167 160 154 139 212 166 175 108 29 274 37 128
322 296 269 256 109 263 227 227 255 220 225 224 203 198 197 200 211 210 178 156 178 180 171 171 172 177 177 179 174 182 196 168 139 147 158 177 171 166 156 168 197 191 191 186 206 202 227 252 54
228 293 206 261 218 225 188 213 250 283 267 261 219 192 190 193 199 215 179 177 170 179 174 174 179 180 177 177 179 192 196 171 159 169 170 166 161 160 179 175 182 201 165 142 198 239 52 80 120
203 205 173 243 213 274 131 235 251 233 247 242 320 194 187 180 193 202 201 180 181 175 177 181 182 181 173 176 181 177 183 174 167 173 164 165 166 165 148 163 170 175 166 203 209 153 201 158 139
266 220 328 297 270 328 216 262 288 263 271 280 236 275 217 185 188 193 199 185 176 174 179 179 179 178 174 179 167 163 167 172 170 160 140 143 134 138 142 163 182 178 175 177 142 175 201 184 193
208 348 195 190 261 256 268 251 233 193 242 238 228 242 226 227 198 182 186 190 187 175 174 174 178 179 170 165 169 157 161 165 165 144 149 150 154 139 149 167 176 161 158 154 157 214 160 95 246
175 209 218 281 239 224 307 269 15 73 292 287 285 222 222 195 218 220 191 180 182 172 175 176 174 174 167 160 159 156 158 157 158 152 161 158 149 161 167 166 160 151 149 151 166 116 107 122 106
200 199 201 179 250 229 195 271 272 124 30 56 36 76 47 31 13 220 222 192 159 165 167 172 168 168 168 159 155 163 153 150 158 164 164 157 155 158 158 148 141 135 129 120 114 124 101 101 97